Weather History for Manhattan, KS

Change the Weather History Date:

Thursday, September 5, 2013

  Actual Average Record
Temperature  
Mean Temperature 78 °F 72 °F  
Max Temperature 93 °F 85 °F 97 °F (2002)
Min Temperature 62 °F 59 °F 46 °F (2008)
Degree Days  
Heating Degree Days 0 0  
Month to date heating degree days 0 0  
Since 1 July heating degree days 3 3  
Cooling Degree Days 13 8  
Month to date cooling degree days 42 42  
Year to date cooling degree days 1270 1225  
Growing Degree Days 28 (Base 50)    
Moisture  
Dew Point 61 °F    
Average Humidity 62    
Maximum Humidity 90    
Minimum Humidity 33    
Precipitation  
Precipitation 0.00 in 0.15 in 0.73 in (2004)
Month to date precipitation T 0.76  
Year to date precipitation 21.22 25.30  
Sea Level Pressure  
Sea Level Pressure 30.11 in    
Wind  
Wind Speed 3 mph (SE)    
Max Wind Speed 10 mph    
Max Gust Speed 15 mph    
Visibility 10 miles    
Events      
T = Trace of Precipitation, MM = Missing Value Source: NWS Daily Summary

Daily Weather History Graph

Daily Weather History Graph

Search for Another Location

Airport:

Trip Planner

Search our weather history database for the weather conditions in past years. The results will help you decide how hot, cold, wet, or windy it might be!

Date:

Astronomy

Sep. 05, 2013 Rise Set
Actual Time 6:59 AM CDT 7:50 PM CDT
Civil Twilight 6:32 AM CDT 8:17 PM CDT
Nautical Twilight 5:59 AM CDT 8:49 PM CDT
Astronomical Twilight 5:26 AM CDT 9:23 PM CDT
Moon 7:11 AM CDT (9/5) 7:43 PM CDT (9/5)
Length of Visible Light 13h 45m
Length of Day
12h 51m
New Moon, 0% of the Moon is Illuminated
Sep 5
New Moon
Sep 12
First Quarter
Sep 19
Full
Sep 26
Last Quarter
Oct 4
New

Hourly Weather History & Observations

Time (CDT) Temp. Heat Index Dew Point Humidity Pressure Visibility Wind Dir Wind Speed Gust Speed Precip Events Conditions
12:52 AM 70.0 °F - 60.1 °F 71% 30.11 in 10.0 mi Calm Calm - N/A   Clear
1:52 AM 71.1 °F - 60.1 °F 68% 30.11 in 10.0 mi ESE 3.5 mph - N/A   Clear
2:52 AM 70.0 °F - 60.1 °F 71% 30.12 in 10.0 mi Calm Calm - N/A   Partly Cloudy
3:52 AM 68.0 °F - 59.0 °F 73% 30.11 in 10.0 mi Calm Calm - N/A   Clear
4:52 AM 68.0 °F - 59.0 °F 73% 30.10 in 10.0 mi Calm Calm - N/A   Clear
5:52 AM 66.0 °F - 59.0 °F 78% 30.11 in 10.0 mi Calm Calm - N/A   Clear
6:52 AM 63.0 °F - 59.0 °F 87% 30.14 in 10.0 mi Calm Calm - N/A   Clear
7:52 AM 68.0 °F - 61.0 °F 78% 30.15 in 10.0 mi Calm Calm - N/A   Clear
8:52 AM 72.0 °F - 61.0 °F 68% 30.16 in 10.0 mi ESE 3.5 mph - N/A   Clear
9:52 AM 77.0 °F - 62.1 °F 60% 30.17 in 10.0 mi Calm Calm - N/A   Clear
10:52 AM 82.0 °F 83.4 °F 64.0 °F 54% 30.17 in 10.0 mi East 4.6 mph - N/A   Clear
11:52 AM 86.0 °F 87.3 °F 64.0 °F 48% 30.15 in 10.0 mi South 5.8 mph - N/A   Clear
12:52 PM 88.0 °F 88.7 °F 63.0 °F 43% 30.13 in 10.0 mi SSE 5.8 mph - N/A   Clear
1:52 PM 91.0 °F 91.9 °F 63.0 °F 39% 30.11 in 10.0 mi Variable 5.8 mph - N/A   Clear
2:52 PM 90.0 °F 90.0 °F 61.0 °F 38% 30.09 in 10.0 mi Calm Calm - N/A   Clear
3:52 PM 91.9 °F 91.8 °F 61.0 °F 35% 30.08 in 10.0 mi South 8.1 mph - N/A   Clear
4:52 PM 93.0 °F 92.7 °F 60.1 °F 33% 30.07 in 10.0 mi South 9.2 mph - N/A   Clear
5:52 PM 90.0 °F 90.3 °F 62.1 °F 39% 30.06 in 10.0 mi ESE 5.8 mph - N/A   Clear
6:52 PM 87.1 °F 87.5 °F 62.1 °F 43% 30.06 in 10.0 mi SSE 5.8 mph - N/A   Clear
7:52 PM 82.9 °F 83.7 °F 62.1 °F 49% 30.06 in 10.0 mi Calm Calm - N/A   Clear
8:52 PM 81.0 °F 81.9 °F 62.1 °F 52% 30.07 in 10.0 mi Calm Calm - N/A   Clear
9:52 PM 79.0 °F - 63.0 °F 58% 30.08 in 10.0 mi East 3.5 mph - N/A   Clear
10:52 PM 75.9 °F - 63.0 °F 64% 30.08 in 10.0 mi Calm Calm - N/A   Clear
11:52 PM 75.9 °F - 62.1 °F 62% 30.08 in 10.0 mi Calm Calm - N/A   Clear